Home > Weather > Tirana > Past weeks

Flag for Albania Past Weather in Tirana, Albania — Yesterday and Last 2 Weeks

Now
57 °F

Clear.


Feels Like: 57 °F
Forecast: 56 / 85 °F
Wind: 5 mph from South

Location: Tirana Airport

Current Time: May 27, 2016 at 4:31:53 AM

Latest Report: May 27, 2016 at 3:50 AM


Visibility: 10 mi

Pressure: 30.01 "Hg

Humidity: 88%

Dew Point: 54 °F

Location of TiranaLocation

Past Weather in Tirana — Graph

°F

Tirana Temperature Yesterday

Maximum temperature yesterday: 75 °F (at 4:50 PM)
Minimum temperature yesterday: 55 °F (at 12:50 AM)
Average temperature yesterday: 66 °F

High & Low Weather Summary for the Past Weeks

 TemperatureHumidityPressure
High79 °F (May 22, 1:20 PM)100% (May 21, 1:20 AM)30.07 "Hg (May 21, 1:20 AM)
Low48 °F (May 18, 5:50 AM)27% (May 24, 11:50 AM)29.59 "Hg (May 12, 2:20 PM)
Average64 °F68%29.90 "Hg
* Reported May 12 3:20 AM — May 27 3:20 AM, Tirana, Weather by CustomWeather, © 2016

Note: Actual official high and low records may vary slightly from our data, if they occured in-between our weather recording intervals... More about our weather records

Advertising

Tirana Weather History for the Previous 24 Hours

Scroll right to see more
 ConditionsComfort  
Time TempWeatherWind HumidityBarometerVisibility
3:20 AM
Fri, May 27
57 °FClear.2 mph94%30.01 "Hg10 mi
2:50 AM57 °FClear.3 mph94%30.01 "Hg10 mi
2:20 AM57 °FPassing clouds.3 mph94%30.01 "HgN/A
1:50 AM57 °FClear.1 mph94%30.01 "Hg10 mi
1:20 AM59 °FClear.1 mph88%30.01 "Hg10 mi
12:50 AM59 °FClear.1 mph94%30.01 "Hg10 mi
12:20 AM61 °FClear.2 mph88%30.01 "Hg10 mi
11:50 PM
Thu, May 26
61 °FPassing clouds.3 mph88%30.01 "HgN/A
11:20 PM61 °FClear.1 mph88%30.01 "Hg10 mi
10:50 PM59 °FClear.2 mph88%30.01 "Hg10 mi
10:20 PM63 °FClear.2 mph83%30.01 "Hg10 mi
9:50 PM63 °FClear.No wind83%30.01 "Hg10 mi
9:20 PM63 °FClear.2 mph77%30.01 "Hg10 mi
8:50 PM64 °FSunny.3 mph73%30.01 "Hg10 mi
8:20 PM66 °FSunny.5 mph68%29.98 "Hg10 mi
7:50 PM66 °FSunny.6 mph68%29.98 "Hg10 mi
7:20 PM70 °FSunny.7 mph60%29.98 "Hg10 mi
6:50 PM72 °FPassing clouds.6 mph57%29.98 "HgN/A
6:20 PM73 °FPassing clouds.7 mph53%29.98 "HgN/A
5:50 PM72 °FPassing clouds.5 mph53%29.95 "HgN/A
5:20 PM73 °FPassing clouds.6 mph53%29.98 "HgN/A
4:50 PM75 °FPassing clouds.7 mph54%29.98 "HgN/A
4:20 PM73 °FPassing clouds.9 mph53%29.98 "HgN/A
3:50 PM72 °FPassing clouds.8 mph57%29.98 "HgN/A
3:20 PM73 °FPassing clouds.10 mph57%29.98 "HgN/A
2:50 PM72 °FPassing clouds.10 mph57%29.98 "HgN/A
2:20 PM72 °FScattered clouds.9 mph57%29.98 "HgN/A
1:50 PM72 °FScattered clouds.7 mph57%29.98 "HgN/A
1:20 PM73 °FScattered clouds.6 mph53%29.98 "HgN/A
12:50 PM72 °FScattered clouds.9 mph53%29.98 "HgN/A
12:20 PM73 °FScattered clouds.6 mph57%29.98 "HgN/A
11:50 AM70 °FPartly sunny.5 mph53%29.98 "HgN/A
11:20 AM72 °FScattered clouds.3 mph53%29.98 "HgN/A
10:50 AM72 °FScattered clouds.5 mph57%29.98 "HgN/A
10:20 AM70 °FScattered clouds.3 mph60%29.98 "HgN/A
9:50 AM68 °FPassing clouds.3 mph60%29.98 "HgN/A
9:20 AM68 °FScattered clouds.3 mph64%29.98 "HgN/A
8:50 AM66 °FScattered clouds.No wind64%29.98 "HgN/A
8:20 AM66 °FPartly sunny.2 mph68%29.98 "HgN/A
7:50 AM63 °FPartly sunny.3 mph73%29.98 "HgN/A
7:20 AM63 °FPartly sunny.3 mph83%29.98 "HgN/A
6:50 AM63 °FScattered clouds.2 mph83%29.98 "HgN/A
6:20 AM61 °FScattered clouds.3 mph83%29.95 "HgN/A
5:50 AM59 °FPassing clouds.3 mph88%29.95 "HgN/A
5:20 AM59 °FPartly cloudy.2 mph88%29.95 "HgN/A
4:50 AM59 °FPartly cloudy.No wind88%29.95 "HgN/A
4:20 AM59 °FPartly cloudy.2 mph88%29.95 "HgN/A
Weather by CustomWeather, © 2016

See weather overviewHow to use our weather pages